Snowfall_Accumulation
0.0 0.0 0.0 0.0 0.0 0.0 0.0 0.0 0.0 0.0 0.0 0.0 0.0 0.0 0.0 0.0 0.0 0.0 0.0 0.0 0.0 0.0 0.0 0.0 0.0 0.0 0.0 0.0 0.0 0.0 0.0 0.0 0.0 0.0 0.0 0.0 0.0 0.0 0.0 0.0 0.0 0.0 0.0
0.0 0.0 0.0 0.0 0.0 0.0 0.0 0.0 0.0 0.0 0.0 0.0 0.0 0.0 0.0 0.0 0.0 0.0 0.0 0.0 0.0 0.0 0.0 0.0 0.0 0.0 0.0 0.0 0.0 0.0 0.0 0.0 0.0 0.0 0.0 0.0 0.0 0.0 0.0 0.0 0.0 0.0 0.0
0.0 0.0 0.0 0.0 0.0 0.0 0.0 0.0 0.0 0.0 0.0 0.0 0.0 0.0 0.0 0.0 0.0 0.0 0.0 0.0 0.0 0.0 0.0 0.0 0.0 0.0 0.0 0.0 0.0 0.0 0.0 0.0 0.0 0.0 0.0 0.0 0.0 0.0 0.0 0.0 0.0 0.0 0.0
0.0 0.0 0.0 0.0 0.0 0.0 0.0 0.0 0.0 0.0 0.0 0.0 0.0 0.0 0.0 0.0 0.0 0.0 0.0 0.0 0.0 0.0 0.0 0.0 0.0 0.0 0.0 0.0 0.0 0.0 0.0 0.0 0.0 0.0 0.0 0.0 0.0 0.0 0.0 0.0 0.0 0.0 0.0
0.0 0.0 0.0 0.0 0.0 0.0 0.0 0.0 0.0 0.0 0.0 0.0 0.0 0.0 0.0 0.0 0.0 0.0 0.0 0.0 0.0 0.0 0.0 0.0 0.0 nan nan nan 0.1 0.0 0.0 0.0 0.1 0.2 0.4 0.4 0.4 0.4 0.2 0.2 0.2 0.1 0.2
0.0 0.0 0.0 0.0 0.0 0.0 0.0 0.0 0.0 0.0 0.0 0.0 0.0 0.0 0.0 0.0 nan nan 0.0 0.0 0.0 0.0 0.0 0.0 0.0 0.0 0.0 nan nan nan nan 0.0 0.1 0.4 0.6 0.3 0.1 0.3 0.2 0.3 0.5 1.7 3.4
0.0 0.0 0.0 0.0 0.0 0.0 0.0 0.0 0.0 0.0 0.0 0.0 0.0 0.0 0.0 0.0 nan nan nan 0.1 0.1 0.1 0.1 0.1 0.0 0.0 nan 0.1 nan nan nan nan 0.0 0.1 0.1 0.2 0.2 0.1 0.1 0.1 0.2 0.5 0.6
0.0 0.0 0.0 0.0 0.0 0.0 0.0 0.0 0.0 0.0 0.0 0.0 0.0 0.0 0.0 0.0 nan nan nan 0.1 0.1 0.1 0.1 0.1 0.1 0.1 0.1 0.1 0.2 0.6 0.3 0.2 0.1 0.1 0.1 0.1 0.1 0.1 0.1 0.1 0.1 0.6 2.3
0.0 0.0 0.0 0.0 0.0 0.0 0.0 0.0 0.0 0.0 0.0 0.0 0.0 0.0 0.1 0.1 nan nan 0.0 0.1 0.1 0.1 0.1 0.1 0.1 0.1 nan nan 0.8 2.0 2.5 1.7 nan nan nan nan nan nan nan 1.4 6.0 5.5 7.9
0.0 0.0 0.0 0.0 0.0 0.0 0.0 0.0 0.0 0.0 0.0 0.3 0.0 0.0 nan 0.1 nan nan nan 0.4 0.1 0.7 0.1 0.1 nan 0.1 nan nan 0.4 1.4 3.4 2.5 2.3 2.0 2.0 1.3 nan nan nan 0.1 1.3 5.2 6.1
0.0 0.0 0.0 0.0 0.0 0.0 0.0 0.0 0.0 0.0 0.0 0.1 0.1 0.0 0.0 0.0 0.1 nan nan 0.2 0.6 1.1 1.0 1.2 0.9 nan nan nan nan 0.6 1.4 1.5 2.4 3.1 3.5 4.5 3.5 2.0 3.2 1.6 0.4 2.5 6.2
0.0 0.0 0.0 0.0 0.0 0.0 0.0 0.0 0.0 0.0 0.1 0.1 0.1 0.4 0.7 0.1 nan nan nan nan nan 1.0 1.0 1.4 1.3 nan nan nan 1.0 nan nan 1.2 3.2 4.0 4.5 5.1 5.1 5.1 4.5 4.4 3.5 3.8 2.2
0.0 0.1 0.0 0.0 0.0 0.0 0.1 0.1 0.7 0.1 0.6 0.3 1.2 1.2 1.2 1.0 0.9 nan nan nan nan 1.0 0.9 1.1 nan nan nan 0.7 nan nan 0.1 2.5 3.2 5.0 3.9 3.8 4.2 4.7 3.9 5.6 5.1 3.8 3.8
0.2 1.2 0.2 0.6 0.1 0.1 0.8 0.8 1.3 2.0 2.4 2.3 2.9 3.7 2.6 1.8 1.4 1.3 1.5 1.7 nan 2.2 1.0 2.0 0.3 1.5 0.0 0.9 1.9 1.8 1.5 1.7 2.3 2.5 3.2 3.1 2.7 3.8 4.5 4.2 5.6 5.0 5.7
0.1 0.5 0.6 2.3 2.6 1.0 0.9 1.9 1.7 1.0 1.7 2.7 2.2 2.1 5.4 6.8 3.6 1.4 2.3 2.8 2.3 1.4 2.1 3.4 3.9 2.8 2.5 2.0 2.0 1.8 1.7 1.9 2.6 2.6 2.7 2.7 2.8 3.3 4.1 3.8 3.7 4.1 5.0
0.1 1.1 1.6 2.2 4.4 4.5 2.8 3.9 nan nan nan nan nan 4.0 6.1 nan nan nan nan nan nan nan 3.3 4.2 6.6 6.3 5.0 2.7 3.4 3.6 2.8 2.2 2.0 2.1 2.8 2.5 3.1 3.6 4.6 4.8 4.1 4.8 6.6
0.1 0.1 1.4 1.7 3.3 4.5 5.6 4.9 6.6 6.3 nan nan nan nan nan nan nan nan nan nan nan nan 5.6 5.3 9.1 9.5 6.3 3.4 3.2 3.2 3.9 3.0 1.1 2.5 2.8 3.3 3.4 2.8 4.5 4.5 5.0 4.5 6.2
0.3 0.0 1.7 2.1 3.5 4.8 5.9 6.0 5.6 6.0 7.3 7.8 nan nan nan nan nan nan nan nan 8.0 nan 3.5 5.9 8.3 7.3 4.3 3.9 3.7 3.5 3.2 3.6 3.2 2.6 3.9 5.4 6.6 5.2 5.2 4.3 4.2 8.4 5.9
1.5 2.9 3.3 4.1 4.1 4.4 4.6 5.6 5.2 5.5 6.5 6.9 6.4 5.4 3.7 nan nan nan nan 5.4 6.1 5.4 4.4 5.6 6.7 6.3 5.6 4.2 6.6 7.4 8.6 7.6 7.1 9.0 5.1 5.9 11.8 3.8 5.4 4.0 4.8 4.5 4.4
2.0 0.8 1.2 1.8 2.6 3.8 3.8 4.5 5.4 5.8 5.6 6.3 5.9 6.6 5.8 3.8 10.6 16.4 11.2 14.4 12.0 9.0 9.2 8.1 7.5 6.9 8.0 7.0 10.2 13.6 11.5 11.0 8.2 5.8 11.0 14.8 13.5 6.5 6.8 6.4 7.7 8.7 5.1
1.3 1.3 0.0 1.2 1.5 1.8 2.6 3.7 4.1 4.3 5.4 5.0 7.3 8.4 4.3 6.4 10.7 9.8 10.0 12.2 11.1 10.2 11.9 7.4 9.1 8.4 7.9 8.8 6.0 8.8 5.6 15.0 7.7 7.7 7.2 7.0 26.5 11.9 5.9 6.1 6.3 4.8 4.3
0.9 1.0 1.1 1.6 1.6 2.5 2.2 2.2 2.8 3.0 3.4 4.2 5.4 5.6 4.6 8.2 6.4 7.9 8.1 11.1 15.5 7.9 6.8 7.4 6.8 6.2 6.5 6.3 6.6 13.1 11.2 14.1 12.4 9.4 8.7 9.6 7.7 7.5 7.6 7.5 8.6 8.8 7.0
1.1 1.6 1.2 1.0 1.4 4.9 3.2 2.2 3.8 3.8 3.5 4.9 3.7 5.2 5.4 8.2 8.4 5.7 7.8 12.9 8.0 9.5 8.4 7.5 11.1 8.5 6.4 8.3 7.0 5.5 8.9 8.6 8.6 9.9 12.9 13.5 9.5 8.9 13.2 10.4 8.8 10.2 9.7
1.0 1.7 1.2 2.1 3.6 2.2 5.1 8.2 5.6 5.9 3.7 5.6 10.3 8.9 7.7 8.5 15.0 12.3 14.9 15.0 10.3 13.8 13.4 13.6 7.1 6.1 6.1 12.8 8.1 6.9 5.3 9.4 7.5 8.8 8.5 12.3 9.6 7.7 11.5 9.5 8.7 9.8 11.5
2.4 4.1 4.8 3.5 3.8 7.3 9.7 6.6 8.2 9.4 9.1 10.9 13.9 11.5 5.2 9.2 7.5 15.3 13.3 11.3 12.2 15.5 9.5 12.0 10.3 7.4 9.0 8.6 7.7 3.9 5.7 5.3 8.1 5.7 10.4 7.3 9.9 11.3 12.3 10.9 12.5 9.5 10.8
1.9 2.2 3.4 4.1 5.1 7.8 8.7 12.9 13.5 11.3 12.6 13.7 14.1 15.6 11.9 9.1 7.8 13.6 11.3 11.5 11.1 10.7 9.9 9.3 8.4 7.2 6.4 6.3 5.1 6.2 6.0 5.8 13.1 6.0 13.8 7.8 13.0 13.0 12.1 10.7 9.0 11.1 8.6
Water_Equivalent
0.00 0.00 0.00 0.00 0.00 0.00 0.00 0.00 0.00 0.00 0.00 0.00 0.00 0.00 0.00 0.00 0.00 0.00 0.00 0.00 0.00 0.00 0.00 0.00 0.00 0.00 0.00 0.00 0.00 0.00 0.00 0.00 0.00 0.00 0.00 0.00 0.00 0.00 0.00 0.00 0.00 0.00 0.00
0.00 0.00 0.00 0.00 0.00 0.00 0.00 0.00 0.00 0.00 0.00 0.00 0.00 0.00 0.00 0.00 0.00 0.00 0.00 0.00 0.00 0.00 0.00 0.00 0.00 0.00 0.00 0.00 0.00 0.00 0.00 0.00 0.00 0.00 0.00 0.00 0.00 0.00 0.00 0.00 0.00 0.00 0.00
0.00 0.00 0.00 0.00 0.00 0.00 0.00 0.00 0.00 0.00 0.00 0.00 0.00 0.00 0.00 0.00 0.00 0.00 0.00 0.00 0.00 0.00 0.00 0.00 0.00 0.00 0.00 0.00 0.00 0.00 0.00 0.00 0.00 0.00 0.00 0.00 0.00 0.00 0.00 0.00 0.00 0.00 0.00
0.00 0.00 0.00 0.00 0.00 0.00 0.00 0.00 0.00 0.00 0.00 0.00 0.00 0.00 0.00 0.00 0.00 0.00 0.00 0.00 0.00 0.00 0.00 0.00 0.00 0.00 0.00 0.00 0.00 0.00 0.00 0.00 0.00 0.00 0.00 0.01 0.00 0.00 0.00 0.00 0.01 0.00 0.00
0.00 0.00 0.00 0.00 0.00 0.00 0.00 0.00 0.00 0.00 0.00 0.00 0.00 0.00 0.00 0.00 0.00 0.00 0.00 0.00 0.00 0.00 0.00 0.00 0.00 nan nan nan 0.04 0.00 0.00 0.01 0.02 0.06 0.10 0.12 0.11 0.11 0.07 0.05 0.04 0.04 0.05
0.00 0.00 0.00 0.00 0.00 0.00 0.00 0.00 0.00 0.00 0.00 0.00 0.00 0.00 0.00 0.00 nan nan 0.00 0.00 0.00 0.01 0.01 0.01 0.01 0.00 0.00 nan nan nan nan 0.01 0.02 0.13 0.17 0.10 0.02 0.08 0.06 0.10 0.14 0.45 0.79
0.00 0.00 0.00 0.00 0.00 0.00 0.00 0.00 0.00 0.00 0.00 0.00 0.00 0.00 0.00 0.00 nan nan nan 0.03 0.03 0.02 0.02 0.02 0.01 0.00 nan 0.02 nan nan nan nan 0.00 0.02 0.04 0.06 0.04 0.02 0.02 0.04 0.04 0.12 0.15
0.00 0.00 0.00 0.00 0.00 0.00 0.00 0.00 0.00 0.00 0.00 0.00 0.00 0.00 0.00 0.00 nan nan nan 0.02 0.02 0.03 0.03 0.02 0.02 0.02 0.03 0.04 0.06 0.17 0.11 0.06 0.05 0.03 0.03 0.03 0.02 0.02 0.02 0.01 0.04 0.13 0.59
0.00 0.00 0.00 0.00 0.00 0.00 0.00 0.00 0.00 0.00 0.00 0.00 0.00 0.01 0.02 0.02 nan nan 0.01 0.02 0.02 0.03 0.02 0.02 0.02 0.03 nan nan 0.21 0.54 0.68 0.46 nan nan nan nan nan nan nan 0.44 1.45 1.23 1.69
0.00 0.00 0.00 0.00 0.00 0.00 0.00 0.00 0.00 0.00 0.00 0.09 0.01 0.01 nan 0.02 nan nan nan 0.10 0.04 0.19 0.03 0.03 nan 0.04 nan nan 0.11 0.33 0.73 0.54 0.59 0.56 0.60 0.39 nan nan nan 0.03 0.36 0.98 1.14
0.00 0.00 0.00 0.00 0.00 0.00 0.00 0.00 0.00 0.01 0.01 0.02 0.02 0.01 0.01 0.01 0.02 nan nan 0.06 0.18 0.35 0.32 0.34 0.29 nan nan nan nan 0.14 0.28 0.32 0.56 0.65 0.75 1.15 0.96 0.55 0.97 0.48 0.12 0.63 1.20
0.00 0.00 0.01 0.00 0.00 0.00 0.00 0.01 0.02 0.01 0.02 0.03 0.03 0.11 0.20 0.03 nan nan nan nan nan 0.31 0.27 0.42 0.38 nan nan nan 0.27 nan nan 0.33 0.72 0.84 0.94 1.03 1.07 1.10 1.00 1.10 0.85 0.94 0.60
0.01 0.02 0.01 0.00 0.01 0.01 0.02 0.03 0.24 0.03 0.20 0.09 0.36 0.35 0.36 0.31 0.30 nan nan nan nan 0.30 0.27 0.33 nan nan nan 0.22 nan nan 0.03 0.58 0.72 1.06 0.75 0.70 0.77 0.90 0.75 1.09 1.05 0.87 0.85
0.07 0.39 0.06 0.18 0.05 0.04 0.29 0.30 0.47 0.65 0.71 0.66 0.82 0.95 0.73 0.53 0.40 0.39 0.44 0.55 nan 0.55 0.29 0.54 0.11 0.36 0.01 0.22 0.45 0.38 0.33 0.37 0.47 0.49 0.60 0.56 0.50 0.69 0.82 0.80 1.07 1.07 1.33
0.03 0.16 0.19 0.75 0.80 0.29 0.28 0.59 0.54 0.31 0.58 0.80 0.66 0.63 1.32 1.57 0.93 0.43 0.67 0.71 0.62 0.33 0.52 0.79 0.80 0.54 0.47 0.39 0.40 0.38 0.34 0.37 0.50 0.49 0.50 0.50 0.53 0.60 0.72 0.71 0.73 0.79 1.01
0.02 0.31 0.47 0.66 1.36 1.39 0.81 1.07 nan nan nan nan nan 1.25 1.95 nan nan nan nan nan nan nan 0.69 0.84 1.25 1.23 0.91 0.51 0.64 0.68 0.52 0.43 0.36 0.38 0.54 0.45 0.54 0.65 0.79 0.88 0.80 0.92 1.14
0.03 0.02 0.41 0.50 0.97 1.23 1.51 1.22 1.35 1.73 nan nan nan nan nan nan nan nan nan nan nan nan 1.12 1.04 1.64 1.75 1.15 0.61 0.58 0.56 0.68 0.55 0.18 0.47 0.52 0.61 0.62 0.51 0.85 0.77 0.86 0.80 1.07
0.10 0.00 0.49 0.58 0.94 1.26 1.51 1.55 1.47 1.39 1.51 1.60 nan nan nan nan nan nan nan nan 1.45 nan 0.71 1.06 1.44 1.31 0.77 0.67 0.62 0.60 0.55 0.67 0.60 0.49 0.75 1.07 1.29 0.96 0.93 0.72 0.70 1.18 0.91
0.45 0.82 0.88 1.11 1.06 1.09 1.18 1.41 1.31 1.33 1.50 1.44 1.37 1.24 1.08 nan nan nan nan 1.08 1.09 1.00 0.85 1.01 1.23 1.09 0.98 0.73 1.25 1.40 1.65 1.45 1.36 1.78 0.99 1.15 2.51 0.71 0.99 0.74 0.83 0.99 0.95
0.54 0.24 0.30 0.46 0.63 0.90 0.87 1.01 1.18 1.26 1.21 1.32 1.22 1.32 1.18 0.83 2.02 3.17 2.16 2.95 2.38 1.73 1.77 1.47 1.31 1.29 1.47 1.29 1.96 2.71 2.30 2.21 1.56 1.12 2.12 3.07 2.81 1.28 1.17 1.06 1.32 1.41 0.85
0.32 0.31 0.00 0.29 0.35 0.41 0.60 0.81 0.85 0.89 1.09 0.99 1.50 1.90 1.41 1.24 1.90 1.83 1.73 2.18 1.87 1.76 2.15 1.34 1.64 1.60 1.49 1.67 1.09 1.61 1.02 3.10 1.41 1.39 1.30 1.29 5.50 1.84 1.01 1.06 1.11 0.82 0.65
0.23 0.24 0.28 0.40 0.38 0.59 0.50 0.47 0.59 0.62 0.70 0.84 1.05 1.07 1.52 1.51 1.12 1.36 1.41 2.05 3.10 1.49 1.23 1.33 1.16 1.11 1.15 1.11 1.17 2.65 2.02 2.65 2.36 1.73 1.55 1.51 1.24 1.28 1.17 1.17 1.30 1.33 1.02
0.27 0.44 0.31 0.25 0.32 1.59 0.74 0.47 0.81 0.83 0.75 1.05 0.74 0.91 0.95 1.47 1.50 1.00 1.40 2.46 1.40 1.69 1.49 1.34 2.05 1.38 1.16 1.53 1.38 1.04 1.54 1.43 1.49 1.76 2.12 2.15 1.38 1.41 2.07 1.57 1.28 1.41 1.34
0.26 0.49 0.32 0.55 0.88 0.50 1.23 1.94 1.24 1.90 0.77 1.20 2.31 1.84 1.52 1.58 3.15 2.47 2.76 3.27 2.00 2.79 2.79 2.67 1.19 0.98 0.97 2.54 1.53 1.25 0.92 1.65 1.31 1.43 1.47 1.87 1.46 1.48 1.73 1.35 1.27 1.36 1.55
0.65 1.13 1.31 0.87 0.92 1.81 2.45 1.60 1.90 2.22 2.08 2.52 3.05 2.39 0.95 1.84 1.43 3.45 2.72 2.04 1.93 2.89 1.64 2.12 1.77 1.26 1.51 1.32 1.18 0.60 1.08 1.76 1.68 1.90 1.47 1.10 1.49 1.48 1.54 1.44 1.72 1.34 1.40
0.49 0.59 0.86 0.98 1.18 1.85 1.97 2.92 2.95 2.52 2.59 3.04 3.12 3.28 2.42 1.70 1.50 2.91 2.08 1.95 1.73 1.63 1.55 1.64 1.45 1.18 1.02 1.04 0.79 1.93 1.98 1.90 1.99 1.98 1.94 1.16 1.64 1.67 1.60 1.42 1.22 1.48 1.08
SL_Ratio
nan nan nan nan nan nan nan nan nan nan nan nan nan nan nan nan nan nan nan nan nan nan nan nan nan nan nan nan nan nan nan nan nan nan nan nan nan nan nan nan nan nan nan
nan nan nan nan nan nan nan nan nan nan nan nan nan nan nan nan nan nan nan nan nan nan nan nan nan nan nan nan nan nan nan nan nan nan nan nan nan nan nan nan nan nan nan
nan nan nan nan nan nan nan nan nan nan nan nan nan nan nan nan nan nan nan nan nan nan nan nan nan nan nan nan nan nan nan nan nan nan nan nan nan nan nan nan nan nan nan
nan nan nan nan nan nan nan nan nan nan nan nan nan nan nan nan nan nan nan nan nan nan nan nan nan nan nan nan nan nan nan nan nan nan 5.0 3.4 nan 5.0 nan nan 3.8 nan nan
nan nan nan nan nan nan nan nan nan nan nan nan nan nan nan nan nan nan nan nan nan 2.5 2.9 nan nan nan nan nan 2.9 nan 3.8 3.3 3.2 3.6 3.5 3.3 3.3 3.3 3.5 3.4 3.6 3.5 3.8
nan nan nan nan nan nan nan nan nan nan nan nan nan nan nan nan nan nan 2.7 2.5 3.0 2.9 3.2 2.9 2.9 2.7 2.7 nan nan nan nan 3.3 3.4 3.3 3.4 3.5 3.5 3.3 3.3 3.5 3.6 3.7 4.3
nan nan nan nan nan nan nan nan nan nan nan nan nan nan nan nan nan nan nan 2.6 2.6 3.0 3.2 3.1 2.9 nan nan 3.3 nan nan nan nan nan 3.1 4.0 3.6 3.7 3.6 3.6 3.9 3.9 3.7 3.9
nan nan nan nan nan nan nan nan nan nan nan nan nan nan 3.0 nan nan nan nan 3.2 3.5 3.2 3.0 3.2 3.2 3.4 3.2 3.2 3.3 3.2 3.2 3.1 3.0 3.0 3.1 3.1 3.4 3.6 3.8 3.7 3.8 4.3 3.8
nan nan nan nan nan nan nan nan nan nan nan nan nan 3.0 3.1 3.1 nan nan 3.4 3.6 3.7 3.7 3.5 3.4 3.1 3.3 nan nan 3.6 3.7 3.6 3.6 nan nan nan nan nan nan nan 3.2 4.1 4.5 4.6
nan nan nan nan nan nan nan nan nan nan nan 2.9 3.0 3.0 nan 3.3 nan nan nan 3.4 3.8 3.4 3.6 3.5 nan 3.1 nan nan 3.9 4.3 4.7 4.7 3.9 3.6 3.3 3.3 nan nan nan 3.6 3.5 5.3 5.3
nan nan nan nan nan nan 3.3 2.5 3.0 2.8 2.9 3.0 3.2 3.2 3.2 3.2 3.3 nan nan 3.4 3.4 3.2 3.2 3.4 3.2 nan nan nan nan 4.5 4.9 4.5 4.4 4.7 4.6 3.9 3.6 3.7 3.3 3.3 3.7 4.0 5.2
nan 2.0 2.9 2.7 2.9 nan 3.1 2.9 2.9 3.0 3.1 3.2 3.6 3.4 3.3 3.4 nan nan nan nan nan 3.3 3.6 3.4 3.3 nan nan nan 3.8 nan nan 3.5 4.4 4.7 4.8 5.0 4.8 4.6 4.6 4.0 4.1 4.0 3.7
2.8 2.7 2.8 5.0 3.1 3.1 3.0 3.0 3.1 3.1 3.3 3.7 3.3 3.4 3.4 3.2 3.1 nan nan nan nan 3.5 3.3 3.3 nan nan nan 3.0 nan nan 3.0 4.4 4.5 4.8 5.2 5.4 5.4 5.2 5.2 5.1 4.8 4.4 4.5
3.1 3.2 3.1 3.2 3.2 3.1 2.8 2.7 2.8 3.0 3.4 3.4 3.5 3.9 3.6 3.4 3.4 3.4 3.4 3.2 nan 4.0 3.4 3.7 3.0 4.0 3.0 3.9 4.2 4.6 4.5 4.5 4.8 5.1 5.4 5.6 5.5 5.5 5.5 5.2 5.2 4.7 4.3
3.4 3.3 3.3 3.1 3.3 3.4 3.3 3.2 3.1 3.3 3.0 3.4 3.4 3.3 4.1 4.3 3.8 3.2 3.4 3.9 3.7 4.1 4.1 4.3 4.9 5.1 5.4 5.1 5.0 4.9 5.1 5.2 5.2 5.3 5.4 5.4 5.3 5.5 5.7 5.3 5.1 5.2 4.9
4.1 3.6 3.4 3.3 3.2 3.2 3.5 3.6 nan nan nan nan nan 3.2 3.1 nan nan nan nan nan nan nan 4.8 5.0 5.3 5.1 5.5 5.4 5.3 5.4 5.4 5.0 5.5 5.5 5.2 5.5 5.6 5.6 5.9 5.5 5.1 5.3 5.8
3.9 3.9 3.4 3.3 3.5 3.7 3.7 4.0 4.9 3.7 nan nan nan nan nan nan nan nan nan nan nan nan 5.0 5.1 5.5 5.4 5.5 5.6 5.5 5.7 5.7 5.5 6.1 5.4 5.4 5.3 5.4 5.6 5.4 5.8 5.8 5.7 5.9
3.5 nan 3.5 3.6 3.7 3.8 3.9 3.9 3.8 4.3 4.8 4.9 nan nan nan nan nan nan nan nan 5.5 nan 4.9 5.6 5.8 5.6 5.7 5.9 5.9 5.9 5.8 5.4 5.4 5.4 5.2 5.1 5.1 5.5 5.5 5.9 6.0 7.1 6.5
3.4 3.6 3.7 3.6 3.8 4.0 3.9 4.0 4.0 4.1 4.3 4.8 4.7 4.4 3.4 nan nan nan nan 5.0 5.5 5.4 5.2 5.6 5.4 5.7 5.8 5.7 5.3 5.3 5.2 5.3 5.2 5.1 5.1 5.2 4.7 5.3 5.4 5.4 5.7 4.5 4.6
3.8 3.2 4.0 4.0 4.1 4.3 4.4 4.5 4.6 4.6 4.7 4.8 4.9 5.0 5.0 4.6 5.3 5.2 5.2 4.9 5.0 5.2 5.2 5.5 5.7 5.4 5.4 5.4 5.2 5.0 5.0 5.0 5.3 5.2 5.2 4.8 4.8 5.0 5.8 6.0 5.8 6.2 6.0
4.2 4.1 nan 4.1 4.3 4.4 4.4 4.6 4.8 4.9 5.0 5.1 4.9 4.4 3.0 5.2 5.7 5.3 5.8 5.6 6.0 5.8 5.5 5.5 5.5 5.3 5.3 5.3 5.6 5.4 5.5 4.9 5.5 5.5 5.6 5.5 4.8 6.5 5.8 5.8 5.7 5.9 6.6
4.1 4.1 4.0 4.0 4.2 4.3 4.5 4.6 4.8 4.9 4.9 5.0 5.1 5.2 3.0 5.4 5.7 5.8 5.7 5.4 5.0 5.3 5.5 5.6 5.9 5.6 5.7 5.6 5.7 4.9 5.5 5.3 5.2 5.4 5.6 6.4 6.2 5.8 6.5 6.4 6.6 6.6 6.9
4.0 3.7 3.9 4.2 4.2 3.1 4.3 4.7 4.7 4.6 4.7 4.7 5.0 5.7 5.7 5.6 5.6 5.8 5.6 5.2 5.7 5.6 5.6 5.6 5.4 6.2 5.6 5.5 5.1 5.3 5.8 6.0 5.8 5.6 6.1 6.3 6.9 6.3 6.4 6.6 6.8 7.2 7.2
3.8 3.6 3.9 3.8 4.1 4.5 4.2 4.2 4.5 3.1 4.7 4.6 4.5 4.8 5.1 5.4 4.8 5.0 5.4 4.6 5.1 5.0 4.8 5.1 6.0 6.2 6.2 5.0 5.3 5.5 5.8 5.7 5.7 6.1 5.8 6.6 6.6 5.2 6.7 7.1 6.8 7.2 7.4
3.6 3.6 3.7 4.0 4.2 4.0 4.0 4.1 4.3 4.2 4.4 4.3 4.6 4.8 5.5 5.0 5.3 4.4 4.9 5.5 6.3 5.4 5.8 5.7 5.8 5.9 6.0 6.5 6.6 6.5 5.3 3.0 4.8 3.0 7.1 6.6 6.7 7.6 8.0 7.6 7.2 7.1 7.7
3.8 3.7 3.9 4.2 4.4 4.2 4.4 4.4 4.6 4.5 4.8 4.5 4.5 4.7 4.9 5.4 5.2 4.7 5.4 5.9 6.4 6.5 6.4 5.7 5.8 6.1 6.3 6.0 6.5 3.2 3.0 3.0 6.6 3.0 7.1 6.7 7.9 7.8 7.6 7.5 7.4 7.5 7.9